Wind_Speed
6 6 5 4 3 3 3 3 3 3 3 2 2 2 1 1 1 1 1 2 2 2 3 3 3 4 4 4 5 5 4 3 2 2 2 4 5 6 6 7 7 9 9
5 5 3 2 1 2 2 3 3 3 2 2 1 1 2 2 2 3 4 4 4 5 5 6 5 5 4 3 2 3 2 1 1 1 2 4 5 6 6 6 6 7 9
4 4 4 4 4 5 5 5 5 5 4 4 4 4 4 4 5 5 6 6 7 7 8 8 8 8 7 5 3 1 1 0 1 3 3 4 5 6 6 6 5 6 7
5 6 7 7 7 8 8 8 7 7 6 6 6 6 6 6 6 7 7 8 8 9 9 10 10 10 9 8 6 5 3 2 3 4 4 4 5 6 6 6 6 5 7
7 8 9 10 10 10 10 9 9 8 8 7 7 7 7 7 8 8 8 8 8 9 10 10 11 11 11 11 10 9 7 6 5 5 6 6 6 6 6 7 7 6 7
9 10 11 12 12 12 11 11 10 10 9 9 8 8 8 8 9 9 9 9 9 9 9 10 11 12 12 12 12 12 11 11 10 8 8 8 8 7 7 8 8 8 8
10 12 13 13 13 14 14 13 12 11 10 10 10 9 9 9 9 9 10 10 10 11 11 11 12 13 13 13 13 14 14 14 14 13 11 10 10 10 9 9 9 10 10
13 14 15 16 16 15 16 15 15 14 13 12 12 11 11 11 11 11 11 12 12 12 13 13 13 14 14 14 14 14 16 16 17 17 16 14 13 12 12 11 11 11 11
15 17 18 19 19 18 18 18 18 17 16 15 14 14 13 13 13 13 13 13 14 14 14 15 15 15 15 15 15 15 16 18 20 21 20 19 17 16 15 14 13 13 13
18 20 21 22 22 22 21 21 22 21 20 19 19 18 17 16 16 15 14 15 15 15 15 15 15 15 15 16 15 16 15 15 18 22 24 23 22 20 18 17 16 15 15
21 22 23 23 24 25 24 25 25 25 24 23 22 22 20 19 18 17 16 15 16 16 16 16 16 16 16 16 16 14 15 15 16 20 25 26 26 25 23 21 19 18 17
24 24 25 25 26 26 26 26 26 26 25 25 24 23 22 21 21 19 18 18 18 18 18 18 18 17 17 17 17 15 14 14 15 19 23 26 27 28 28 25 23 21 20
24 24 24 25 26 27 26 26 25 24 23 22 22 22 22 23 22 20 21 21 21 21 20 20 20 19 18 18 18 16 15 14 15 17 20 24 27 29 31 30 28 26 24
23 24 24 24 25 24 24 24 22 21 20 21 20 20 20 21 22 22 23 23 23 23 22 22 22 21 20 20 19 18 17 16 16 17 18 22 25 28 31 33 32 31 29
23 23 22 21 21 21 21 21 20 20 20 20 20 20 21 22 23 24 24 25 25 25 25 24 24 23 23 22 21 20 20 19 18 19 19 20 24 27 31 32 35 34 33
21 21 20 19 19 19 19 19 20 20 20 20 21 22 23 24 25 25 26 26 26 26 26 26 26 26 25 24 23 23 22 21 20 20 20 20 22 25 28 33 35 37 36
17 17 16 15 16 17 17 18 19 20 21 22 22 23 24 25 25 26 26 26 26 26 27 27 27 26 26 25 25 25 24 23 22 22 22 22 23 24 27 30 34 37 38
14 14 13 14 15 15 17 18 19 20 20 21 22 22 23 24 24 25 25 25 25 26 26 26 27 27 26 26 26 26 25 25 24 24 24 24 24 24 26 30 33 35 38
11 12 12 13 14 15 16 17 18 19 20 20 21 22 22 23 23 24 24 24 25 25 26 26 26 26 26 26 26 26 26 26 26 26 25 25 25 25 26 29 32 35 37
9 9 10 12 13 14 15 16 17 18 19 19 20 20 21 22 22 23 23 24 25 25 25 25 26 26 26 26 26 27 27 28 28 28 28 27 27 26 26 29 32 34 36
7 8 10 12 13 15 16 17 18 19 19 19 19 20 20 21 21 22 23 23 24 25 25 25 25 25 26 26 27 27 28 29 29 30 30 29 29 28 27 29 31 34 35
7 9 11 13 15 16 17 18 19 20 20 20 20 19 19 20 21 21 22 23 24 24 25 25 25 26 26 26 26 27 28 29 30 31 31 31 31 30 30 30 31 33 34
9 12 13 15 16 18 18 18 19 19 19 19 19 19 18 18 19 20 21 22 23 23 24 24 25 26 27 27 27 27 28 30 30 31 31 32 32 32 31 32 32 33 35
11 13 15 16 17 17 18 18 18 18 18 18 18 17 17 17 17 18 19 19 21 22 23 24 25 26 27 27 28 29 29 30 31 31 31 32 32 33 33 33 34 34 35
13 15 16 16 17 17 17 17 17 18 18 18 18 17 17 17 17 18 18 19 20 22 23 24 25 27 28 29 30 30 31 31 32 33 33 33 33 34 35 35 35 35 36
15 16 16 17 17 17 18 18 18 18 19 19 19 19 18 18 18 19 20 21 22 23 24 26 27 29 30 31 33 33 34 34 35 35 35 36 36 36 36 37 37 37 36
Wind_Direction
54 53 51 53 47 29 12 9 17 22 33 48 56 55 46 31 11 340 327 324 330 339 346 352 2 16 29 39 46 51 53 57 69 90 132 149 140 130 124 121 127 132 134
41 34 25 18 1 323 313 310 316 322 325 328 330 324 315 306 299 298 297 297 300 302 305 308 313 320 330 345 11 35 45 64 116 161 167 171 162 150 137 130 132 136 141
11 353 338 319 300 289 284 282 283 285 291 293 290 287 287 286 285 284 284 285 288 290 292 294 296 299 300 299 296 300 320 299 196 203 194 184 178 171 159 145 139 141 146
339 326 314 306 298 293 287 281 278 278 279 282 283 285 285 285 286 287 285 283 283 282 282 284 286 288 289 286 277 262 249 239 222 216 208 197 189 184 176 164 155 153 156
320 311 304 300 297 296 293 288 284 281 280 280 281 283 284 283 285 287 286 285 286 285 283 283 284 284 283 280 273 260 245 234 227 222 216 208 200 195 189 180 174 170 168
307 303 300 297 296 295 295 294 293 290 287 284 282 284 284 284 284 285 287 289 289 289 288 287 286 285 282 277 271 261 248 235 227 222 219 215 209 203 200 192 185 182 180
296 295 295 294 293 294 294 294 294 294 292 289 288 289 289 288 286 286 288 288 289 289 289 288 286 283 281 279 274 261 249 241 229 222 218 217 213 210 207 202 195 190 189
288 288 287 288 288 289 291 291 291 292 292 291 291 290 288 288 286 285 288 289 289 289 289 288 286 283 280 276 273 268 253 243 232 223 218 217 215 213 211 207 201 196 195
284 282 281 282 283 284 285 286 288 289 289 288 288 287 285 286 286 287 288 289 289 290 290 289 286 281 278 276 272 268 262 250 236 225 219 217 216 214 213 211 207 200 197
285 281 278 277 278 279 281 282 283 284 285 284 285 285 285 285 286 287 288 289 290 291 292 292 290 284 278 277 275 269 264 259 244 230 221 218 217 216 214 213 212 207 202
285 279 276 276 279 279 280 280 279 280 280 281 284 284 284 284 285 286 289 289 290 291 293 293 291 287 281 278 276 274 270 268 251 237 227 220 219 217 216 214 214 212 209
287 281 277 276 276 277 277 280 282 280 278 280 283 281 279 280 282 286 289 291 291 291 292 292 290 288 284 281 278 276 273 268 258 246 236 226 222 220 218 216 215 214 213
288 283 279 277 278 278 278 282 282 283 284 285 285 282 281 281 283 285 288 290 290 289 288 289 289 287 284 281 280 277 272 270 264 258 244 232 225 223 220 218 217 215 215
288 284 281 279 281 281 280 282 288 291 290 289 290 294 289 287 287 286 286 288 287 287 286 286 286 286 283 279 278 277 273 271 267 262 253 239 230 227 224 221 219 218 216
287 285 283 283 280 279 284 286 292 296 296 294 293 291 290 289 287 285 285 285 285 285 285 283 282 282 281 279 276 275 273 270 266 261 256 247 238 232 228 225 223 221 219
287 284 283 284 283 284 288 290 292 294 294 292 291 289 287 287 286 284 283 282 282 282 281 280 279 278 278 277 275 272 269 268 267 264 258 253 245 239 234 228 226 224 223
287 287 288 291 292 292 295 297 297 296 294 291 289 287 286 285 284 283 283 282 281 281 280 278 277 277 275 274 272 271 268 267 266 265 260 254 249 245 240 233 229 227 226
293 294 296 299 298 299 300 301 299 297 295 292 289 287 285 284 283 283 283 283 282 281 280 278 277 276 275 273 270 269 267 265 264 264 261 255 251 247 242 238 233 230 228
298 299 302 304 304 305 304 303 302 300 298 295 291 288 286 284 282 282 283 283 282 281 280 278 277 276 274 271 269 266 265 263 262 262 260 257 252 250 245 242 236 232 230
302 308 312 312 312 312 312 311 309 306 302 299 295 292 290 287 284 283 282 282 281 281 281 280 278 276 274 272 269 266 264 263 261 260 259 257 253 252 249 245 238 234 232
318 322 323 323 323 322 321 320 319 316 312 307 303 300 296 293 290 288 286 285 284 282 281 280 278 277 275 273 270 267 264 262 260 258 258 257 254 252 251 247 241 236 235
333 334 333 331 331 330 328 326 323 321 319 316 313 309 304 299 296 293 291 289 288 286 284 281 279 278 276 274 271 268 265 263 260 259 257 256 253 251 249 247 243 239 237
341 338 335 334 334 332 330 327 324 322 321 320 317 314 310 306 302 298 295 293 291 289 288 286 283 280 278 275 272 269 266 264 262 259 257 254 252 250 248 245 243 240 237
340 338 335 333 331 328 327 326 326 326 325 324 322 319 317 314 311 307 303 300 297 295 293 291 288 285 281 277 274 270 267 264 262 260 257 255 252 248 246 243 240 240 238
337 334 330 328 326 325 326 327 328 328 328 327 325 323 321 319 317 314 311 308 305 301 298 295 292 288 284 280 276 271 268 265 261 259 257 255 252 249 246 243 239 239 238
327 325 322 322 323 323 323 324 326 326 327 327 326 324 322 321 319 318 315 312 309 306 302 299 294 290 286 282 278 274 269 265 261 258 256 254 252 249 246 244 241 239 238
Height
5921 5921 5921 5920 5920 5919 5918 5917 5917 5916 5916 5915 5915 5914 5914 5913 5913 5912 5912 5911 5911 5910 5909 5909 5909 5908 5908 5907 5907 5906 5906 5905 5904 5904 5904 5903 5903 5903 5902 5902 5902 5902 5902
5921 5920 5921 5921 5920 5920 5919 5918 5917 5916 5915 5915 5914 5914 5913 5913 5912 5912 5911 5911 5910 5910 5909 5909 5908 5908 5908 5908 5907 5907 5906 5905 5905 5904 5904 5904 5904 5904 5904 5903 5903 5903 5903
5920 5920 5920 5920 5920 5919 5919 5918 5917 5916 5915 5914 5913 5913 5912 5912 5911 5911 5910 5910 5910 5909 5909 5908 5908 5907 5907 5907 5907 5906 5906 5905 5905 5904 5904 5904 5904 5904 5904 5904 5904 5904 5904
5919 5919 5919 5918 5918 5918 5917 5917 5916 5915 5914 5913 5912 5911 5911 5910 5910 5909 5909 5908 5908 5908 5907 5907 5906 5906 5906 5905 5905 5905 5905 5905 5904 5904 5904 5903 5903 5904 5904 5904 5904 5905 5905
5918 5918 5917 5916 5916 5915 5915 5915 5914 5913 5912 5912 5911 5910 5909 5908 5908 5907 5907 5907 5906 5906 5906 5905 5905 5904 5904 5903 5903 5903 5904 5904 5903 5903 5903 5903 5903 5904 5904 5904 5905 5905 5906
5917 5916 5915 5914 5914 5913 5912 5912 5911 5911 5910 5909 5909 5908 5907 5906 5906 5905 5905 5904 5904 5904 5904 5903 5903 5902 5901 5901 5901 5901 5901 5902 5902 5902 5902 5902 5903 5903 5904 5904 5905 5905 5906
5915 5914 5914 5913 5912 5911 5910 5910 5909 5908 5908 5907 5906 5906 5905 5904 5904 5903 5903 5902 5902 5901 5901 5901 5900 5899 5899 5898 5898 5898 5898 5898 5899 5900 5900 5901 5901 5902 5903 5904 5904 5905 5906
5914 5912 5911 5910 5910 5909 5908 5907 5906 5906 5905 5904 5904 5903 5902 5902 5901 5901 5900 5900 5899 5899 5898 5898 5897 5896 5896 5895 5894 5894 5894 5894 5895 5896 5897 5898 5899 5900 5902 5903 5903 5904 5905
5911 5910 5908 5907 5907 5906 5905 5904 5904 5903 5902 5902 5901 5900 5899 5898 5898 5897 5897 5896 5896 5895 5895 5894 5894 5893 5892 5891 5890 5890 5890 5890 5890 5892 5894 5895 5897 5898 5900 5901 5902 5903 5905
5908 5907 5905 5904 5903 5902 5902 5901 5900 5899 5898 5898 5897 5896 5895 5894 5894 5893 5892 5892 5891 5891 5890 5890 5890 5889 5888 5887 5886 5886 5886 5885 5886 5887 5889 5891 5893 5895 5897 5898 5900 5902 5903
5905 5904 5902 5901 5899 5898 5898 5897 5896 5895 5894 5893 5893 5891 5891 5890 5889 5889 5888 5887 5887 5886 5886 5885 5885 5884 5883 5883 5882 5882 5881 5881 5881 5882 5884 5886 5888 5891 5893 5895 5897 5899 5901
5901 5900 5898 5897 5895 5894 5893 5892 5892 5891 5890 5888 5888 5887 5886 5885 5884 5884 5883 5882 5882 5881 5881 5880 5880 5879 5878 5878 5878 5877 5877 5877 5877 5877 5879 5881 5883 5886 5888 5891 5893 5896 5898
5896 5895 5893 5892 5891 5890 5889 5888 5887 5886 5885 5884 5883 5882 5881 5880 5880 5879 5879 5878 5877 5876 5875 5875 5874 5874 5873 5873 5872 5872 5873 5873 5872 5873 5874 5876 5877 5880 5883 5886 5889 5891 5894
5891 5890 5889 5888 5886 5885 5884 5884 5883 5882 5880 5880 5879 5877 5876 5876 5875 5875 5874 5873 5872 5871 5870 5870 5869 5869 5868 5868 5867 5868 5868 5868 5868 5868 5869 5870 5872 5874 5877 5880 5883 5886 5889
5887 5886 5884 5884 5882 5881 5880 5880 5879 5878 5877 5876 5875 5874 5873 5872 5871 5870 5868 5867 5867 5866 5865 5864 5864 5864 5863 5863 5862 5863 5863 5863 5863 5863 5864 5865 5866 5869 5871 5874 5877 5881 5884
5883 5881 5880 5880 5878 5877 5877 5876 5875 5874 5873 5871 5870 5869 5868 5866 5865 5864 5863 5862 5861 5860 5859 5859 5858 5858 5858 5857 5857 5857 5857 5857 5858 5858 5858 5859 5861 5863 5865 5868 5871 5875 5878
5879 5878 5877 5876 5875 5874 5873 5872 5870 5869 5868 5866 5865 5863 5862 5860 5859 5858 5856 5856 5855 5854 5853 5852 5852 5851 5851 5851 5851 5851 5851 5852 5852 5853 5853 5854 5855 5857 5859 5861 5865 5868 5872
5876 5875 5874 5874 5872 5871 5870 5868 5866 5865 5863 5861 5859 5858 5856 5855 5853 5852 5850 5849 5848 5847 5847 5846 5846 5845 5845 5845 5845 5845 5845 5846 5846 5847 5848 5848 5849 5851 5853 5855 5857 5861 5865
5873 5873 5872 5871 5870 5868 5866 5864 5862 5860 5858 5856 5854 5852 5850 5849 5847 5845 5844 5843 5842 5841 5840 5840 5839 5839 5838 5838 5838 5838 5839 5839 5840 5841 5842 5842 5843 5845 5846 5848 5850 5854 5857
5871 5870 5869 5868 5866 5864 5862 5860 5858 5856 5853 5851 5849 5847 5845 5843 5841 5840 5838 5837 5836 5835 5834 5833 5832 5832 5831 5831 5831 5831 5832 5832 5833 5834 5835 5836 5837 5838 5840 5841 5843 5846 5850
5869 5868 5867 5865 5863 5860 5858 5856 5853 5851 5848 5846 5843 5841 5839 5837 5836 5834 5832 5831 5830 5828 5828 5826 5826 5825 5825 5824 5824 5824 5825 5825 5826 5827 5828 5829 5830 5832 5833 5834 5837 5839 5842
5867 5865 5863 5861 5859 5856 5854 5851 5849 5846 5843 5841 5838 5836 5834 5832 5830 5828 5826 5825 5823 5822 5821 5820 5819 5818 5818 5817 5817 5817 5817 5818 5818 5819 5820 5822 5823 5824 5826 5827 5829 5832 5835
5864 5862 5860 5858 5855 5853 5850 5847 5845 5842 5839 5836 5834 5831 5829 5827 5824 5822 5821 5819 5817 5815 5814 5813 5812 5811 5810 5810 5810 5810 5810 5810 5811 5812 5812 5814 5815 5817 5818 5820 5822 5825 5827
5862 5860 5858 5855 5853 5850 5848 5845 5842 5839 5836 5833 5830 5828 5825 5822 5820 5818 5816 5814 5812 5810 5808 5807 5805 5804 5803 5803 5802 5802 5802 5802 5802 5803 5805 5805 5807 5808 5810 5812 5815 5817 5819
5860 5858 5856 5854 5851 5849 5846 5843 5839 5836 5833 5830 5827 5824 5821 5819 5816 5814 5811 5809 5807 5804 5802 5800 5799 5797 5796 5795 5794 5794 5794 5794 5794 5795 5796 5797 5798 5800 5802 5804 5807 5810 5812
5858 5856 5854 5852 5849 5847 5844 5840 5837 5834 5830 5827 5824 5821 5818 5815 5812 5809 5806 5804 5801 5798 5796 5794 5791 5790 5788 5786 5785 5784 5784 5785 5785 5786 5787 5788 5789 5791 5793 5796 5799 5801 5804